"Period start","avg(HW err(1)/warn(2) (#))","avg(Visibility (m))","avg(Weather code (#))","avg(Precip intensity (mm/h))","min(HW err(1)/warn(2) (#))","max(HW err(1)/warn(2) (#))","std(HW err(1)/warn(2) (#))","med(HW err(1)/warn(2) (#))","min(Visibility (m))","max(Visibility (m))","std(Visibility (m))","med(Visibility (m))","min(Weather code (#))","max(Weather code (#))","std(Weather code (#))","med(Weather code (#))","min(Precip intensity (mm/h))","max(Precip intensity (mm/h))","std(Precip intensity (mm/h))","med(Precip intensity (mm/h))"
2013-10-14 00:00:00,2,49411,0,0.00,2,2,0,2,44110,50000,1767,50000,0,0,0,0,0.00,0.00,0.00,0.00
2013-10-14 00:10:00,2,49286,0,0.00,2,2,0,2,46304,50000,1429,50000,0,0,0,0,0.00,0.00,0.00,0.00
2013-10-14 00:20:00,2,47995,0,0.00,2,2,0,2,40010,50000,3185,49451,0,0,0,0,0.00,0.00,0.00,0.00
2013-10-14 00:30:00,2,49501,0,0.00,2,2,0,2,47261,50000,1004,50000,0,0,0,0,0.00,0.00,0.00,0.00
2013-10-14 00:40:00,2,49734,0,0.00,2,2,0,2,48236,50000,553,50000,0,0,0,0,0.00,0.00,0.00,0.00
2013-10-14 00:50:00,2,49165,0,0.00,2,2,0,2,44208,50000,1820,50000,0,0,0,0,0.00,0.00,0.00,0.00
2013-10-14 01:00:00,2,49822,0,0.00,2,2,0,2,48247,50000,525,50000,0,0,0,0,0.00,0.00,0.00,0.00
2013-10-14 01:10:00,2,49411,0,0.00,2,2,0,2,46803,50000,1038,50000,0,0,0,0,0.00,0.00,0.00,0.00
2013-10-14 01:20:00,2,49194,0,0.00,2,2,0,2,47838,50000,991,49999,0,0,0,0,0.00,0.00,0.00,0.00
2013-10-14 01:30:00,2,49968,0,0.00,2,2,0,2,49679,50000,96,50000,0,0,0,0,0.00,0.00,0.00,0.00
2013-10-14 01:40:00,2,48691,0,0.00,2,2,0,2,44887,50000,2022,50000,0,0,0,0,0.00,0.00,0.00,0.00
2013-10-14 01:50:00,2,48767,0,0.00,2,2,0,2,44223,50000,2063,50000,0,0,0,0,0.00,0.00,0.00,0.00
2013-10-14 02:00:00,2,48896,0,0.00,2,2,0,2,44177,50000,2211,50000,0,0,0,0,0.00,0.00,0.00,0.00
2013-10-14 02:10:00,2,48375,0,0.00,2,2,0,2,44097,50000,1904,49016,0,0,0,0,0.00,0.00,0.00,0.00
2013-10-14 02:20:00,2,47803,0,0.00,2,2,0,2,42285,50000,2414,48320,0,0,0,0,0.00,0.00,0.00,0.00
2013-10-14 02:30:00,2,49087,0,0.00,2,2,0,2,44717,50000,1617,50000,0,0,0,0,0.00,0.00,0.00,0.00
2013-10-14 02:40:00,2,49897,0,0.00,2,2,0,2,48974,50000,308,50000,0,0,0,0,0.00,0.00,0.00,0.00
2013-10-14 02:50:00,2,50000,0,0.00,2,2,0,2,50000,50000,0,50000,0,0,0,0,0.00,0.00,0.00,0.00
2013-10-14 03:00:00,2,49950,0,0.00,2,2,0,2,49501,50000,150,50000,0,0,0,0,0.00,0.00,0.00,0.00
2013-10-14 03:10:00,2,49985,0,0.00,2,2,0,2,49850,50000,45,50000,0,0,0,0,0.00,0.00,0.00,0.00
2013-10-14 03:20:00,2,49902,0,0.00,2,2,0,2,49025,50000,292,50000,0,0,0,0,0.00,0.00,0.00,0.00
2013-10-14 03:30:00,2,49833,0,0.00,2,2,0,2,48329,50000,501,50000,0,0,0,0,0.00,0.00,0.00,0.00
2013-10-14 03:40:00,2,49285,0,0.00,2,2,0,2,45189,50000,1453,50000,0,0,0,0,0.00,0.00,0.00,0.00
2013-10-14 03:50:00,2,48650,0,0.00,2,2,0,2,39831,50000,3103,50000,0,0,0,0,0.00,0.00,0.00,0.00
2013-10-14 04:00:00,2,45858,0,0.00,2,2,0,2,32553,50000,6292,48960,0,0,0,0,0.00,0.00,0.00,0.00
2013-10-14 04:10:00,2,48550,0,0.00,2,2,0,2,42577,50000,2583,50000,0,0,0,0,0.00,0.00,0.00,0.00
2013-10-14 04:20:00,2,47352,0,0.00,2,2,0,2,39801,50000,3559,49696,0,0,0,0,0.00,0.00,0.00,0.00
2013-10-14 04:30:00,2,48451,0,0.00,2,2,0,2,38459,50000,3422,50000,0,0,0,0,0.00,0.00,0.00,0.00
2013-10-14 04:40:00,2,49117,0,0.00,2,2,0,2,45034,50000,1521,50000,0,0,0,0,0.00,0.00,0.00,0.00
2013-10-14 04:50:00,2,48878,0,0.00,2,2,0,2,46483,50000,1457,50000,0,0,0,0,0.00,0.00,0.00,0.00
2013-10-14 05:00:00,2,49175,0,0.00,2,2,0,2,45288,50000,1468,50000,0,0,0,0,0.00,0.00,0.00,0.00
2013-10-14 05:10:00,2,48994,0,0.00,2,2,0,2,45641,50000,1614,50000,0,0,0,0,0.00,0.00,0.00,0.00
2013-10-14 05:20:00,2,50000,0,0.00,2,2,0,2,50000,50000,0,50000,0,0,0,0,0.00,0.00,0.00,0.00
2013-10-14 05:30:00,2,29555,14,0.00,2,2,0,2,10019,47533,14548,29630,0,71,28,0,0.00,0.00,0.00,0.00
2013-10-14 05:40:00,2,8484,78,0.03,2,2,0,2,7551,9152,471,8548,78,78,0,78,0.00,0.05,0.02,0.05
2013-10-14 05:50:00,2,8276,78,0.07,2,2,0,2,7642,9120,535,8161,78,78,0,78,0.05,0.15,0.03,0.05
2013-10-14 06:00:00,2,6238,76,0.18,2,2,0,2,5198,7594,835,6146,71,78,3,78,0.05,0.45,0.13,0.17
2013-10-14 06:10:00,2,6008,74,0.17,2,2,0,2,5442,6815,359,5919,71,77,3,74,0.05,0.50,0.12,0.15
2013-10-14 06:20:00,2,4602,78,0.19,2,2,0,2,3312,5901,947,4537,77,78,0,78,0.05,0.50,0.12,0.15
2013-10-14 06:30:00,2,2375,71,1.16,2,2,0,2,2043,3069,336,2244,71,71,0,71,0.35,1.90,0.45,1.27
2013-10-14 06:40:00,2,1844,71,1.69,2,2,0,2,1667,2128,160,1766,71,71,0,71,1.10,2.40,0.36,1.65
2013-10-14 06:50:00,2,3840,71,0.53,2,2,0,2,2261,5027,1116,4063,71,71,0,71,0.20,1.10,0.28,0.47
2013-10-14 07:00:00,2,3588,75,0.35,2,2,0,2,3289,3902,210,3550,71,77,3,77,0.25,0.45,0.06,0.35
2013-10-14 07:10:00,2,7243,75,0.20,2,2,0,2,3739,12501,2691,7589,71,78,3,77,0.10,0.40,0.08,0.20
2013-10-14 07:20:00,2,8472,75,0.20,2,2,0,2,5232,11433,2118,9008,71,78,3,77,0.10,0.30,0.07,0.23
2013-10-14 07:30:00,2,5211,72,0.29,2,2,0,2,3737,6458,995,5318,71,77,2,71,0.10,0.65,0.17,0.25
2013-10-14 07:40:00,2,18819,72,0.27,2,2,0,2,3445,50000,16549,10290,71,77,2,71,0.00,0.65,0.25,0.22
2013-10-14 07:50:00,2,50000,0,0.00,2,2,0,2,50000,50000,0,50000,0,0,0,0,0.00,0.00,0.00,0.00
2013-10-14 08:00:00,2,30541,37,0.06,2,2,0,2,8990,50000,17537,30386,0,78,37,36,0.00,0.25,0.09,0.00
2013-10-14 08:10:00,2,5836,72,0.53,2,2,0,2,4468,8706,1351,5322,71,78,2,71,0.15,0.95,0.29,0.43
2013-10-14 08:20:00,2,7067,71,0.31,2,2,0,2,5176,9284,1346,7020,71,71,0,71,0.05,0.80,0.23,0.20
2013-10-14 08:30:00,2,7418,75,0.17,2,2,0,2,6767,7826,345,7480,71,77,3,77,0.10,0.30,0.06,0.15
2013-10-14 08:40:00,2,5785,76,0.04,2,2,0,2,4988,6403,410,5775,71,78,3,78,0.00,0.10,0.03,0.05
2013-10-14 08:50:00,2,7148,78,0.07,2,2,0,2,5370,9578,1326,7158,78,78,0,78,0.05,0.15,0.03,0.05
2013-10-14 09:00:00,2,7438,76,0.20,2,2,0,2,5507,8649,946,7676,71,78,3,78,0.05,0.45,0.10,0.15
2013-10-14 09:10:00,2,4307,71,0.70,2,2,0,2,3736,5530,600,4058,71,71,0,71,0.45,1.05,0.17,0.68
2013-10-14 09:20:00,2,4724,71,0.66,2,2,0,2,3748,5602,581,4665,71,71,0,71,0.35,1.30,0.29,0.57
2013-10-14 09:30:00,2,5423,71,0.68,2,2,0,2,3624,7017,1205,5543,71,71,0,71,0.20,1.25,0.39,0.50
2013-10-14 09:40:00,2,3434,71,1.11,2,2,0,2,2885,4028,378,3360,71,71,0,71,0.85,1.60,0.25,1.02
2013-10-14 09:50:00,2,3730,71,0.96,2,2,0,2,3352,4564,369,3600,71,71,0,71,0.50,1.20,0.21,1.00
2013-10-14 10:00:00,2,4355,71,0.75,2,2,0,2,3538,4991,508,4459,71,71,0,71,0.45,1.45,0.31,0.68
2013-10-14 10:10:00,2,3337,71,1.71,2,2,0,2,3010,3578,174,3356,71,71,0,71,1.35,2.70,0.41,1.58
2013-10-14 10:20:00,2,3185,71,1.82,2,2,0,2,2981,3497,170,3202,71,71,0,71,1.05,2.45,0.48,1.88
2013-10-14 10:30:00,2,3127,71,1.38,2,2,0,2,2909,3715,242,3038,71,71,0,71,0.85,1.70,0.28,1.45
2013-10-14 10:40:00,2,3231,71,1.06,2,2,0,2,2257,4312,715,3092,71,71,0,71,0.65,1.40,0.25,1.08
2013-10-14 10:50:00,2,2171,71,1.71,2,2,0,2,2100,2233,50,2189,71,71,0,71,1.50,2.00,0.19,1.68
2013-10-14 11:00:00,2,1892,71,2.02,2,2,0,2,1526,2217,234,1870,71,71,0,71,1.20,2.95,0.54,1.95
2013-10-14 11:10:00,2,1621,71,2.24,2,2,0,2,1357,1885,153,1609,71,71,0,71,1.35,3.55,0.68,2.28
2013-10-14 11:20:00,2,1569,71,1.61,2,2,0,2,1495,1647,49,1577,71,71,0,71,1.20,1.90,0.25,1.75
2013-10-14 11:30:00,2,1872,71,0.96,2,2,0,2,1645,2106,137,1846,71,71,0,71,0.65,1.20,0.18,1.00
2013-10-14 11:40:00,2,1728,71,1.82,2,2,0,2,1628,1938,88,1714,71,71,0,71,1.35,2.25,0.23,1.88
2013-10-14 11:50:00,2,1902,71,1.88,2,2,0,2,1782,2149,100,1892,71,71,0,71,1.25,2.30,0.29,1.95
2013-10-14 12:00:00,2,2097,71,1.31,2,2,0,2,1774,2308,144,2102,71,71,0,71,1.00,1.95,0.28,1.27
2013-10-14 12:10:00,2,2148,71,1.43,2,2,0,2,1922,2484,170,2118,71,71,0,71,1.10,1.70,0.19,1.40
2013-10-14 12:20:00,2,2637,71,1.22,2,2,0,2,2195,3257,378,2558,71,71,0,71,0.45,2.00,0.45,1.23
2013-10-14 12:30:00,2,2697,71,1.19,2,2,0,2,2261,3221,296,2600,71,71,0,71,0.80,1.50,0.24,1.18
2013-10-14 12:40:00,2,4888,73,0.30,2,2,0,2,3895,6781,770,4808,71,77,3,71,0.15,0.50,0.10,0.28
2013-10-14 12:50:00,2,4714,77,0.28,2,2,0,2,3948,6196,765,4458,77,77,0,77,0.15,0.40,0.08,0.28
2013-10-14 13:00:00,2,2677,74,0.74,2,2,0,2,2192,3420,379,2716,71,78,3,74,0.50,1.05,0.17,0.73
2013-10-14 13:10:00,2,3203,71,0.67,2,2,0,2,2043,4490,823,3208,71,71,0,71,0.10,1.30,0.40,0.62
2013-10-14 13:20:00,2,5239,76,0.21,2,2,0,2,4162,7591,1031,4830,71,77,2,77,0.10,0.40,0.10,0.17
2013-10-14 13:30:00,2,8826,78,0.09,2,2,0,2,7189,12203,1450,8511,77,78,0,78,0.00,0.20,0.06,0.05
2013-10-14 13:40:00,2,10950,76,0.07,2,2,0,2,7152,14932,2517,10567,71,78,3,78,0.05,0.15,0.03,0.05
2013-10-14 13:50:00,2,7539,72,0.30,2,2,0,2,4962,10188,1668,7713,71,77,2,71,0.15,0.65,0.19,0.20
2013-10-14 14:00:00,2,4634,71,0.53,2,2,0,2,3720,7650,1056,4308,71,71,0,71,0.40,0.80,0.12,0.53
2013-10-14 14:10:00,2,5091,72,0.39,2,2,0,2,3825,6110,775,5164,71,77,2,71,0.20,0.70,0.17,0.38
2013-10-14 14:20:00,2,5789,72,0.34,2,2,0,2,4926,6686,567,5708,71,77,2,71,0.25,0.45,0.08,0.33
2013-10-14 14:30:00,2,4666,71,0.68,2,2,0,2,3578,6579,963,4283,71,71,0,71,0.25,0.80,0.16,0.70
2013-10-14 14:40:00,2,3956,71,0.76,2,2,0,2,3295,4808,488,3868,71,71,0,71,0.50,1.10,0.19,0.68
2013-10-14 14:50:00,2,3929,71,0.82,2,2,0,2,3142,5457,673,3691,71,71,0,71,0.25,1.15,0.26,0.88
2013-10-14 15:00:00,2,3649,71,0.53,2,2,0,2,3081,4317,349,3606,71,71,0,71,0.25,0.95,0.19,0.45
2013-10-14 15:10:00,2,5169,71,0.36,2,2,0,2,4054,6751,860,4984,71,71,0,71,0.10,1.05,0.27,0.28
2013-10-14 15:20:00,2,4901,73,0.35,2,2,0,2,3471,5406,562,5065,71,77,3,71,0.20,0.85,0.18,0.30
2013-10-14 15:30:00,2,5856,71,0.21,2,2,0,2,5193,6926,527,5738,71,71,0,71,0.05,0.55,0.14,0.20
2013-10-14 15:40:00,2,6285,71,0.23,2,2,0,2,5189,7824,876,6213,71,71,0,71,0.05,0.55,0.13,0.23
2013-10-14 15:50:00,2,6202,71,0.18,2,2,0,2,4885,7126,647,6371,71,71,0,71,0.10,0.25,0.06,0.17
2013-10-14 16:00:00,2,7049,73,0.21,2,2,0,2,5754,7868,765,7269,71,77,3,71,0.10,0.45,0.11,0.17
2013-10-14 16:10:00,2,7052,71,0.39,2,2,0,2,5033,8419,854,7208,71,71,0,71,0.20,0.60,0.15,0.35
2013-10-14 16:20:00,2,8530,71,0.26,2,2,0,2,6319,10396,1412,8803,71,71,0,71,0.05,0.75,0.22,0.15
2013-10-14 16:30:00,2,12928,76,0.04,2,2,0,2,11926,14553,762,12749,71,78,3,77,0.00,0.10,0.03,0.05
2013-10-14 16:40:00,2,12975,78,0.06,2,2,0,2,10959,15610,1296,12806,77,78,0,78,0.05,0.10,0.02,0.05
2013-10-14 16:50:00,2,15529,72,0.07,2,2,0,2,11805,19352,2692,15488,71,78,3,71,0.00,0.45,0.13,0.05
2013-10-14 17:00:00,2,14114,73,0.13,2,2,0,2,9059,18974,3486,13719,71,77,3,71,0.00,0.60,0.17,0.10
2013-10-14 17:10:00,2,14482,71,0.14,2,2,0,2,12418,17214,1647,14069,71,71,0,71,0.05,0.30,0.09,0.10
2013-10-14 17:20:00,2,21869,73,0.07,2,2,0,2,14610,29256,4241,22292,71,77,3,71,0.00,0.10,0.03,0.05
2013-10-14 17:30:00,2,24628,76,0.06,2,2,0,2,17749,32438,3850,24338,71,78,3,77,0.00,0.15,0.05,0.05
2013-10-14 17:40:00,2,22144,74,0.10,2,2,0,2,19022,26639,2097,22188,71,77,3,74,0.00,0.25,0.09,0.05
2013-10-14 17:50:00,2,39384,75,0.01,2,2,0,2,32141,50000,6900,36316,71,78,3,77,0.00,0.05,0.02,0.00
2013-10-14 18:00:00,2,48538,78,0.00,2,2,0,2,43775,50000,1761,48994,78,78,0,78,0.00,0.00,0.00,0.00
2013-10-14 18:10:00,2,49417,31,0.00,2,2,0,2,47191,50000,1072,50000,0,78,38,0,0.00,0.00,0.00,0.00
2013-10-14 18:20:00,2,49856,0,0.00,2,2,0,2,49048,50000,307,50000,0,0,0,0,0.00,0.00,0.00,0.00
2013-10-14 18:30:00,2,48288,0,0.00,2,2,0,2,43037,50000,2449,49652,0,0,0,0,0.00,0.00,0.00,0.00
2013-10-14 18:40:00,2,47862,45,0.00,2,2,0,2,36999,50000,3982,50000,0,78,37,71,0.00,0.00,0.00,0.00
2013-10-14 18:50:00,2,49423,78,0.00,2,2,0,2,46320,50000,1207,50000,78,78,0,78,0.00,0.00,0.00,0.00
2013-10-14 19:00:00,2,49371,78,0.01,2,2,0,2,43973,50000,1801,50000,78,78,0,78,0.00,0.05,0.02,0.00
2013-10-14 19:10:00,2,50000,78,0.00,2,2,0,2,50000,50000,0,50000,78,78,0,78,0.00,0.00,0.00,0.00
2013-10-14 19:20:00,2,50000,0,0.00,2,2,0,2,50000,50000,0,50000,0,0,0,0,0.00,0.00,0.00,0.00
2013-10-14 19:30:00,2,48249,14,0.00,2,2,0,2,41848,50000,2740,49844,0,71,28,0,0.00,0.00,0.00,0.00
2013-10-14 19:40:00,2,47494,78,0.01,2,2,0,2,42209,50000,2833,48978,78,78,0,78,0.00,0.05,0.02,0.00
2013-10-14 19:50:00,2,49058,76,0.01,2,2,0,2,45507,50000,1441,50000,71,78,3,78,0.00,0.05,0.02,0.00
2013-10-14 20:00:00,2,48208,75,0.01,2,2,0,2,39172,50000,3398,50000,71,78,3,78,0.00,0.05,0.02,0.00
2013-10-14 20:10:00,2,38435,78,0.07,2,2,0,2,14359,50000,11698,41616,78,78,0,78,0.00,0.55,0.16,0.00
2013-10-14 20:20:00,2,19818,72,0.11,2,2,0,2,14383,23326,2606,20362,71,78,2,71,0.05,0.25,0.07,0.10
2013-10-14 20:30:00,2,17638,71,0.28,2,2,0,2,14727,23382,2577,17102,71,71,0,71,0.05,0.50,0.14,0.25
2013-10-14 20:40:00,2,32099,71,0.08,2,2,0,2,26268,41804,4966,30304,71,71,0,71,0.00,0.45,0.13,0.05
2013-10-14 20:50:00,2,35533,71,0.03,2,2,0,2,28422,44143,5689,35640,71,71,0,71,0.00,0.15,0.05,0.00
2013-10-14 21:00:00,2,26481,71,0.11,2,2,0,2,15558,35218,7643,27714,71,71,0,71,0.00,0.35,0.12,0.05
2013-10-14 21:10:00,2,13899,71,0.23,2,2,0,2,9857,20862,3470,12720,71,71,0,71,0.05,0.70,0.19,0.15
2013-10-14 21:20:00,2,15719,71,0.13,2,2,0,2,9694,22383,3850,14728,71,71,0,71,0.05,0.20,0.05,0.12
2013-10-14 21:30:00,2,15273,71,0.30,2,2,0,2,12032,22212,2819,14351,71,71,0,71,0.10,0.70,0.19,0.28
2013-10-14 21:40:00,2,18011,71,0.15,2,2,0,2,10396,25537,5264,17516,71,71,0,71,0.00,0.60,0.17,0.08
2013-10-14 21:50:00,2,27162,71,0.12,2,2,0,2,18542,39325,7228,27041,71,71,0,71,0.00,0.30,0.11,0.08
2013-10-14 22:00:00,2,23638,71,0.16,2,2,0,2,11979,34366,6237,22028,71,71,0,71,0.05,0.45,0.13,0.12
2013-10-14 22:10:00,2,27102,71,0.15,2,2,0,2,7904,39040,10183,29850,71,71,0,71,0.00,0.35,0.12,0.17
2013-10-14 22:20:00,2,14438,71,0.59,2,2,0,2,4062,32475,10224,11216,71,71,0,71,0.00,1.75,0.61,0.40
2013-10-14 22:30:00,2,2714,71,2.90,2,2,0,2,1977,3914,536,2709,71,71,0,71,1.90,3.80,0.79,3.10
2013-10-14 22:40:00,2,1738,71,5.32,2,2,0,2,1389,2102,236,1768,71,71,0,71,4.35,6.45,0.69,5.47
2013-10-14 22:50:00,2,1276,71,6.24,2,2,0,2,905,1572,185,1279,71,71,0,71,5.05,8.10,1.00,5.90
2013-10-14 23:00:00,2,1708,71,4.57,2,2,0,2,1464,2059,187,1636,71,71,0,71,2.80,5.70,0.99,4.97
2013-10-14 23:10:00,2,1943,71,3.45,2,2,0,2,1580,2419,274,1837,71,71,0,71,1.85,4.20,0.85,3.83
2013-10-14 23:20:00,2,1746,71,4.91,2,2,0,2,1440,2229,226,1748,71,71,0,71,4.05,6.30,0.80,4.88
2013-10-14 23:30:00,2,1968,71,3.96,2,2,0,2,1480,2715,350,1947,71,71,0,71,2.55,4.80,0.72,4.10
2013-10-14 23:40:00,2,1731,71,4.54,2,2,0,2,1263,2138,235,1768,71,71,0,71,3.40,5.50,0.73,4.85
2013-10-14 23:50:00,2,2356,71,3.90,2,2,0,2,1752,3049,354,2331,71,71,0,71,2.75,5.45,0.84,3.88
